Location: Caltech
(34.1382°N, 118.1253°W)
Time: 21:50:15
(UTC-07:00)

SL-8 R/B - Visible Passes

Search period start: 19 August 2014 00:00
Search period end: 29 August 2014 00:00
Orbit: 354 x 362 km, 98.1° (Epoch: 19 August)

Date Brightness Start Highest point End Pass type
(mag) Time Alt. Az. Time Alt. Az. Time Alt. Az.
19 Aug 4.4 04:45:08 10° NNW 04:46:26 19° NW 04:46:26 19° NW visible
20 Aug 6.0 03:42:32 10° NE 03:42:55 12° NE 03:42:55 12° NE visible
21 Aug 4.9 04:09:56 10° NNE 04:11:05 22° NNE 04:11:05 22° NNE visible
22 Aug 4.4 04:37:55 10° N 04:39:10 21° NNW 04:39:10 21° NNW visible
23 Aug 4.9 05:06:39 10° NW 05:07:10 12° NW 05:07:10 12° NW visible
24 Aug 5.4 04:02:32 10° NNE 04:03:21 17° NE 04:03:21 17° NE visible
25 Aug 4.6 04:30:03 10° N 04:31:11 21° N 04:31:11 21° N visible
26 Aug 4.8 04:58:09 10° NNW 04:58:57 14° NW 04:58:57 14° NW visible
27 Aug 5.9 03:54:33 10° NE 03:54:54 12° NE 03:54:54 12° NE visible
28 Aug 5.0 04:21:35 10° NNE 04:22:30 19° NNE 04:22:30 19° NNE visible
